Tracking 22124 objects as of 24-Jan-2021
HD Live streaming from Space Station
objects crossing your sky now

USA 274 DEB

Track USA 274 DEB now!
10-day predictions
USA 274 DEB is classified as:


NORAD ID: 42065
Int'l Code: 2017-011B
Perigee: 1,106.5 km
Apogee: 1,120.2 km
Inclination: 63.4 °
Period: 107.4 minutes
Semi major axis: 7484 km
RCS: Unknown
Launch date: March 1, 2017
Source: United States (US)
Launch site: AIR FORCE WESTERN TEST RANGE (AFWTR)

Note: This is SATELLITE DEBRIS
aabbcc
Your satellite tracking list
Your tracking list is empty




NASA's NSSDC Master Catalog

Two Line Element Set (TLE):
1 42065U 17011B   21023.14130311 0.00000000  00000-0  00000-0 0    02
2 42065  63.4408 128.9440 0009148  90.7869 269.2131 13.40821350    04
Source of the keplerian elements: McCants